AO-07 1 07530U 74089B 19101.87230394 -.00000027 00000-0 11075-3 0 9998 2 07530 101.7371 70.2484 0012465 116.9235 297.5306 12.53637467 32020 UO-11 1 14781U 84021B 19100.94966915 .00000063 00000-0 13886-4 0 9995 2 14781 097.6179 128.8945 0008548 175.3201 184.8095 14.83075222867575 LO-19 1 20442U 90005G 19101.37808274 .00000006 00000-0 18444-4 0 9998 2 20442 98.6429 43.5149 0011726 356.7265 3.3840 14.32921590526590 HUBBLE 1 20580U 90037B 19101.14699074 .00000564 00000-0 23511-4 0 9997 2 20580 28.4697 305.1808 0002867 105.8635 184.9380 15.09203371390522 MET-2/21 1 22782U 93055A 19101.42057046 .00000082 00000-0 60207-4 0 9992 2 22782 82.5516 217.2381 0022343 13.4515 51.2339 13.83818167293426 AO-27 1 22825U 93061C 19100.93245322 -.00000002 00000-0 17170-4 0 9992 2 22825 098.8997 088.0148 0008084 192.1427 167.9561 14.30055160331856 IO-26 1 22826U 93061D 19101.78954374 .00000001 00000-0 18092-4 0 9993 2 22826 98.8938 88.8911 0008882 178.6801 181.4405 14.30388471332447 FO-29 1 24278U 96046B 19101.22644704 -.00000017 00000-0 16545-4 0 9993 2 24278 98.5270 263.9582 0351180 57.6950 305.7697 13.53090038118549 NOAA-15 1 25338U 98030A 19101.56156424 .00000023 00000-0 28422-4 0 9993 2 25338 98.7529 122.9305 0011581 82.6832 277.5663 14.25901551 87543 GO-32 1 25397U 98043D 19101.79833376 -.00000005 00000-0 17168-4 0 9991 2 25397 98.6833 42.7861 0000688 172.6816 187.4373 14.23663231 78218 ISS 1 25544U 98067A 19101.88265046 .00003489 00000-0 63327-4 0 9990 2 25544 51.6418 330.8130 0001869 170.3903 8.7375 15.52531342164958 NO-44 1 26931U 01043C 19101.61376483 -.00000032 00000-0 19477-4 0 9997 2 26931 67.0513 179.3540 0005802 277.7269 82.3173 14.30537821915237 SO-50 1 27607U 02058C 19101.16153397 .00000056 00000-0 28599-4 0 9992 2 27607 64.5540 259.1151 0082406 269.5719 89.5941 14.75534247876921 CO-55 1 27844U 03031E 19101.54974493 .00000050 00000-0 42073-4 0 9994 2 27844 98.6864 110.7754 0009006 223.0845 136.9629 14.22169293818600 CO-57 1 27848U 03031J 19100.95950899 .00000033 00000-0 34857-4 0 9998 2 27848 098.6943 110.6784 0008732 237.2787 122.7549 14.21765493818349 RS-22 1 27939U 03042A 19101.89870355 .00000088 00000-0 24295-4 0 9998 2 27939 98.0288 239.0803 0011377 282.6983 77.2954 14.66767941830601 NOAA-18 1 28654U 05018A 19101.55943469 .00000078 00000-0 67207-4 0 9997 2 28654 99.1047 147.4795 0014295 13.8019 346.3540 14.12415139715905 CO-58 1 28895U 05043F 19101.62400361 .00000175 00000-0 42456-4 0 9996 2 28895 97.9478 246.7302 0016361 202.1328 157.9171 14.63647151717528 Falconsat-3 1 30776U 07006E 19101.50809182 .00003340 00000-0 94728-4 0 9995 2 30776 35.4342 165.7414 0003343 224.7523 135.2934 15.35883333670194 CO-65 1 32785U 08021C 19101.17548841 .00000292 00000-0 37146-4 0 9994 2 32785 97.5498 104.1242 0014379 126.3075 233.9473 14.88276086593492 AAUSAT2 1 32788U 08021F 19101.76730168 .00000335 00000-0 35825-4 0 9997 2 32788 97.5017 120.4905 0013334 70.9439 289.3225 14.94655608594777 DO-64 1 32789U 08021G 19101.68629369 .00002142 00000-0 14775-3 0 9997 2 32789 97.4722 153.3827 0012050 6.1830 353.9544 15.06787876596724 CO-66 1 32791U 08021J 19101.17466248 .00000530 00000-0 59168-4 0 9994 2 32791 97.5300 110.0196 0014953 104.7339 255.5538 14.90771527593907 RS-30 1 32953U 08025A 19101.87701209 .00000020 00000-0 75656-4 0 9998 2 32953 82.5066 186.9308 0017852 277.2278 82.6770 12.43088596493882 PRISM 1 33493U 09002B 19101.33303496 .00000917 00000-0 86004-4 0 9995 2 33493 98.1230 19.6979 0016625 52.7807 307.4927 14.96578083554925 NOAA-19 1 33591U 09005A 19101.53818042 .00000072 00000-0 64454-4 0 9994 2 33591 99.1772 91.0244 0013477 206.0028 154.0467 14.12343733524287 TISAT-1 1 36799U 10035E 19101.16643460 .00000630 00000-0 69737-4 0 9990 2 36799 98.1453 251.0870 0011223 315.0266 45.0041 14.91048575474554 JUGNU 1 37839U 11058B 19100.17283667 .00000311 00000-0 23936-4 0 9998 2 37839 19.9623 36.3435 0018797 280.5718 213.0394 14.12646666387416 SRMSAT 1 37841U 11058D 19101.17485588 .00000288 00000-0 13139-4 0 9995 2 37841 19.9718 85.6234 0011937 163.1427 287.8680 14.10628405387001 AO-71 1 37854U 11061E 19101.27776381 .00001495 00000-0 84250-4 0 9991 2 37854 101.7112 324.3468 0161133 269.0481 89.2267 15.06254257406693 HRBE 1 37855U 11061F 19101.53730034 .00001517 00000-0 83943-4 0 9999 2 37855 101.7246 322.1229 0173927 278.8352 79.3201 15.05257593406527 ALMASAT-1 1 38078U 12006B 19101.66712012 .00069732 52168-5 43378-3 0 9994 2 38078 69.4263 100.4309 0177882 7.6925 108.2562 15.58193523386875 HORYU-2 1 38340U 12025D 19101.63504945 .00000202 00000-0 37618-4 0 9999 2 38340 98.3371 138.1554 0011025 347.8389 12.2551 14.75690138371123 RS-40 1 38735U 12041C 19101.18837299 .00000002 00000-0 -54114-4 0 9995 2 38735 82.4713 270.7959 0017292 27.6295 332.5703 12.42577996304040 BEESAT-3 1 39135U 13015F 19101.19931547 .00001474 00000-0 83320-4 0 9998 2 39135 64.8659 259.6617 0011418 313.7020 46.3159 15.17311744329857 BEESAT-2 1 39136U 13015G 19101.80437481 .00001407 00000-0 81211-4 0 9998 2 39136 64.8677 261.3233 0012563 307.5750 52.4234 15.16755228329877 ZACUBE-1 1 39417U 13066B 19101.20004674 .00000247 00000-0 37488-4 0 9992 2 39417 97.5670 118.5365 0057424 258.2200 101.2569 14.81081443290908 TRITON-1 1 39427U 13066M 19101.49065922 .00000356 00000-0 64473-4 0 9992 2 39427 97.6707 83.1060 0114576 24.5730 336.0876 14.67806932288339 GOMX-1 1 39430U 13066Q 19101.80720986 .00000202 00000-0 45038-4 0 9995 2 39430 97.7397 62.8621 0152562 108.0249 253.7645 14.59218060286704 LO-74 1 39440U 13066AA 19101.54452115 .00000284 00000-0 46579-4 0 9994 2 39440 97.6023 104.0075 0079036 307.0707 52.3294 14.75820915289922 AO-73 1 39444U 13066AE 19101.03569337 .00000291 00000-0 42234-4 0 9999 2 39444 97.5655 120.2578 0056594 252.7718 106.7296 14.81892540289764 SPROUT 1 39770U 14029E 19101.88319322 .00000942 00000-0 11069-3 0 9995 2 39770 97.8793 205.6466 0007762 314.1467 45.9097 14.87250679264755 DUCHIFAT-1 1 40021U 14033M 19101.34163970 .00000626 00000-0 69825-4 0 9991 2 40021 97.9228 25.7175 0011489 277.3005 82.6907 14.90570682261362 NANOSATCBR1 1 40024U 14033Q 19101.73556972 .00000506 00000-0 58687-4 0 9996 2 40024 97.9133 23.7042 0010816 279.5034 80.4961 14.89793246261323 EO-79 1 40025U 14033R 19101.75701136 .00000337 00000-0 41897-4 0 9990 2 40025 97.9064 21.5509 0011038 285.4871 74.5127 14.88900621261215 DTUSAT-2 1 40030U 14033W 19101.19678663 .00000340 00000-0 42631-4 0 9993 2 40030 97.8988 19.2636 0010497 282.6100 77.3942 14.88496824261066 EO-80 1 40032U 14033Y 19101.73746948 .00000334 00000-0 42018-4 0 9999 2 40032 97.8995 19.8037 0010440 281.1937 78.8106 14.88438231261131 ANTELSAT 1 40034U 14033AA 19101.21459178 .00000239 00000-0 42940-4 0 9998 2 40034 97.7710 331.2608 0057847 318.6100 41.0733 14.74069907258580 VELOX-1 1 40057U 14034E 19101.75757109 .00000348 00000-0 56195-4 0 9996 2 40057 98.2248 223.4220 0012501 92.1334 268.1315 14.77620505257734 DAURIA DX 1 1 40071U 14037C 19101.80148673 .00000127 00000-0 23732-4 0 9997 2 40071 98.4149 252.2586 0009945 85.1711 275.0641 14.81250553257204 UKUBE-1 1 40074U 14037F 19101.80089216 .00000325 00000-0 46249-4 0 9995 2 40074 98.4277 259.9381 0006227 77.9302 282.2616 14.84003511257587 HODOYOSHI-1 1 40299U 14070B 19101.79565992 .00000829 00000-0 37875-4 0 9993 2 40299 97.3510 182.9547 0011131 283.7266 192.2271 15.23278629245930 CHUBUSAT-1 1 40300U 14070C 19101.75235735 .00000748 00000-0 35708-4 0 9994 2 40300 97.3323 177.6409 0018167 297.1725 180.8247 15.21986113245688 QSAT-EOS 1 40301U 14070D 19101.70264022 .00002074 00000-0 83636-4 0 9998 2 40301 97.3299 180.2533 0024059 280.1223 200.0302 15.25691455245921 FIREBIRD FU3 1 40377U 15003B 19101.82030067 .00003944 00000-0 15901-3 0 9997 2 40377 99.1071 68.2064 0127001 317.0326 42.1037 15.18524833231620 FIREBIRD FU4 1 40378U 15003C 19101.80772611 .00004009 00000-0 16140-3 0 9993 2 40378 99.1074 68.2640 0127230 316.9642 42.1690 15.18529845231620 GRIFEX 1 40379U 15003D 19101.85005460 .00003172 00000-0 13844-3 0 9998 2 40379 99.1057 62.7999 0135401 334.1549 25.2955 15.15282804231315 NO-84 1 40654U 15025D 19100.36188300 .00010120 00000-0 14479-3 0 05844 2 40654 054.9883 128.7294 0143093 147.0498 213.9601 15.45942140101722 NO-83 1 40655U 15025E 19100.39443459 .00047657 00000-0 29515-3 0 06985 2 40655 054.9739 028.0423 0066938 204.6683 155.1278 15.73445921102798 DEORBITSAIL 1 40719U 15032E 19101.35492683 .00000450 00000-0 71440-4 0 9993 2 40719 97.9161 354.5413 0016564 161.4991 198.6825 14.76680943202173 NUDT-PHONESAT 1 40900U 15049B 19101.75066984 .00002951 00000-0 13010-3 0 9994 2 40900 97.4401 111.7600 0014905 67.3226 347.8532 15.22493992197321 XW-2A 1 40903U 15049E 19101.87131944 .00002832 00000-0 69207-4 0 9997 2 40903 97.3457 144.2291 0014940 37.2315 322.1083 15.41580900199792 XW-2C 1 40906U 15049H 19101.77996528 .00001100 00000-0 61261-4 0 9995 2 40906 97.4678 104.9888 0016715 76.4635 275.3654 15.15580764196708 XW-2D 1 40907U 15049J 19101.78308839 .00001003 00000-0 55891-4 0 9993 2 40907 97.4657 104.6701 0016070 73.7400 12.2353 15.15760243196729 LILACSAT-2 1 40908U 15049K 19101.70634663 .00000195 00000-0 14385-4 0 9997 2 40908 97.4785 103.5499 0017946 77.8829 9.8149 15.13741925196524 XW-2E 1 40909U 15049L 19101.78151620 .00001608 00000-0 83099-4 0 9991 2 40909 97.4601 107.3121 0015448 71.1547 281.4735 15.17629664196882 XW-2F 1 40910U 15049M 19101.74209900 .00001568 00000-0 82169-4 0 9996 2 40910 97.4632 106.4840 0016567 68.8297 17.2202 15.17144040196710 XW-2B 1 40911U 15049N 19101.74684236 .00000989 00000-0 55285-4 0 9991 2 40911 97.4678 105.2651 0016006 75.5728 11.3833 15.15692429196611 DCBB 1 40912U 15049P 19101.74491256 .00001718 00000-0 84060-4 0 9994 2 40912 97.4516 109.9829 0016549 54.5642 35.2668 15.19436170196990 TW-1C 1 40926U 15051B 19101.83029442 .00015583 00000-0 24011-3 0 9990 2 40926 97.1443 148.1283 0006545 257.9124 223.3442 15.54240088199611 TW-1A 1 40928U 15051D 19101.87606213 .00004657 00000-0 11725-3 0 9991 2 40928 97.1534 134.6718 0009976 329.2901 117.5190 15.40352840198735 IO-86 1 40931U 15052B 19101.73816806 .00000663 00000-0 32019-5 0 9996 2 40931 5.9960 181.1842 0013179 278.4684 81.5282 14.76603167191203 LQSat 1 40958U 15057A 19101.84145376 .00000021 00000-0 10924-4 0 9997 2 40958 97.9037 172.8499 0019817 98.6501 261.6941 14.73072501188813 AO-85 1 40967U 15058D 19101.15555012 .00000109 00000-0 29628-4 0 06540 2 40967 064.7795 006.5018 0207389 224.1504 134.2905 14.75908808097621 ATHENOXAT-1 1 41168U 15077C 19101.00750000 .00002144 00000-0 78950-4 0 9998 2 41168 14.9844 359.3792 0011239 219.6419 337.1161 15.13469953183558 ChubuSat-2 1 41338U 16012B 19101.48976566 .00000465 00000-0 29533-4 0 9993 2 41338 31.0026 218.1924 0013660 147.9928 212.1538 15.00121408172662 ChubuSat-3 1 41339U 16012C 19101.53380699 .00000412 00000-0 25291-4 0 9995 2 41339 31.0109 216.0956 0013123 154.5998 205.5274 15.00298826172664 Horyu-4 1 41340U 16012D 19101.48658666 .00000712 00000-0 47390-4 0 9990 2 41340 31.0044 208.4538 0013878 172.7302 187.3537 15.01214960172750 OUFTI-1 1 41458U 16025C 19101.80387341 .00001478 00000-0 79843-4 0 9997 2 41458 98.1018 185.2091 0166111 224.6824 134.0915 15.05553524162367 e-st@r-II 1 41459U 16025D 19101.80453487 .00001331 00000-0 72760-4 0 9992 2 41459 98.1021 184.9169 0167269 225.8691 132.8668 15.05215721162336 AAUSAT4 1 41460U 16025E 19101.79661631 .00002230 00000-0 11653-3 0 9996 2 41460 98.0963 185.9803 0157641 219.5240 139.4398 15.06991564162443 LO-87 1 41557U 16033B 19101.83294120 .00002298 00000-0 89231-4 0 9994 2 41557 97.4172 189.7381 0014245 171.0623 189.0873 15.27026724159734 NuSat2 1 41558U 16033C 19101.82095167 .00002335 00000-0 85641-4 0 9997 2 41558 97.4196 190.5537 0013218 172.1662 187.9787 15.28927027159769 Lapan A3 1 41603U 16040E 19101.82984097 .00000248 00000-0 14792-4 0 9995 2 41603 97.3679 162.1875 0011595 277.5445 195.4637 15.19688971155430 Swayam 1 41607U 16040J 19100.94997300 .00002191 00000-0 95815-4 0 9996 2 41607 097.3721 164.2607 0011767 273.0250 086.9641 15.23081382155419 Pratham 1 41783U 16059A 19101.13692655 .00000045 00000-0 17965-4 0 9994 2 41783 98.0749 162.2062 0032449 238.2454 121.5585 14.62982522135525 AlSat 1N 1 41789U 16059G 19101.73067858 .00000088 00000-0 25756-4 0 9991 2 41789 98.0767 164.6351 0027324 225.3989 134.4985 14.64228575135704 ScatSat 1 41790U 16059H 19101.72137327 .00000005 00000-0 12394-4 0 9994 2 41790 98.2177 148.4105 0016936 254.1831 105.7497 14.50895209134474 TY-1 1 41844U 16066D 19101.82392451 .00002287 00000-0 96652-4 0 9997 2 41844 97.4072 109.9982 0017189 69.4837 54.3489 15.24131339134354 Pegasus-1 1 41846U 16066F 19101.04307591 .00000462 00000-0 79286-4 0 9991 2 41846 98.7198 140.1190 0368851 82.5025 281.7899 14.37526775126691 CAS-2T 1 41847U 16066G 19101.69818937 .00000142 00000-0 30982-4 0 9999 2 41847 98.7145 141.3095 0367072 77.2724 286.9223 14.37971412127222 EO-88 1 42017U 17008BX 19100.81987523 .00002411 00000-0 98535-4 0 9996 2 42017 97.4086 168.6098 0007659 61.5212 298.6796 15.25311505119424 PHOENIX 1 42706U 98067LP 19101.68042779 .00278264 42671-4 59704-3 0 9995 2 42706 51.6219 254.1206 0007050 300.0149 60.0160 15.97996545109041 ZA-AeroSat 1 42713U 98067LU 19101.66600000 .00160587 20802-4 47322-3 0 9991 2 42713 51.6289 260.9363 0005234 280.6309 79.4108 15.92308191108615 NJUST-1 1 42722U 98067MB 19101.71082318 .00101104 00000-0 39891-3 0 9999 2 42722 51.6362 267.1868 0003310 249.2854 202.0849 15.86024259107602 nSIGHT1 1 42726U 98067MF 19101.79680040 .00027683 00000-0 24247-3 0 9995 2 42726 51.6370 295.3337 0004824 268.4592 91.5852 15.68648576107151 Aoxiang-1 1 42735U 98067MQ 19101.78170568 .00133571 00000-0 46672-3 0 9993 2 42735 51.6268 264.4043 0005410 280.1700 215.9827 15.88370946108770 BeEagleSat 1 42736U 98067MR 19101.64425573 .00447741 10359-3 64431-3 0 9999 2 42736 51.6232 253.8200 0009593 303.9213 56.0886 16.04714575107595 CAS-4B 1 42759U 17034B 19101.72413509 .00000422 00000-0 39354-4 0 9991 2 42759 43.0163 244.0589 0010423 189.7619 306.9361 15.09532861100569 CAS-4A 1 42761U 17034D 19101.75802635 .00000286 00000-0 30989-4 0 9992 2 42761 43.0174 243.4555 0010878 190.8952 311.8845 15.09608629100565 UCLSat 1 42765U 17036A 19100.92877261 .00001784 00000-0 79691-4 0 9990 2 42765 097.3588 160.3861 0013236 109.4352 250.8316 15.22566466100593 NIUSat 1 42766U 17036B 19101.15196357 .00001408 00000-0 66443-4 0 9991 2 42766 97.3587 159.1967 0017503 100.2032 260.1178 15.20963829 99815 LituanicaSAT 2 1 42768U 17036D 19101.69609236 .00003378 00000-0 14821-3 0 9997 2 42768 97.3613 160.7093 0017077 99.2765 261.0403 15.22509495 99965 Aalto 1 1 42775U 17036L 19101.12361586 .00001167 00000-0 55208-4 0 9995 2 42775 97.3575 159.4805 0015781 100.1629 260.1388 15.21217556 99782 URSA MAIOR 1 42776U 17036M 19101.15589819 .00001231 00000-0 57879-4 0 9998 2 42776 97.3584 159.6380 0015615 100.1071 260.1927 15.21341012 99795 Max Valier Sat 1 42778U 17036P 19101.67728041 .00001481 00000-0 67970-4 0 9999 2 42778 97.3619 160.8188 0014251 102.3914 257.8918 15.21874063 99892 Pegasus 1 42784U 17036V 19101.33631107 .00001781 00000-0 80115-4 0 9994 2 42784 97.3592 160.6285 0013799 108.6600 251.6135 15.22325950 99869 NUDATSat 1 42787U 17036Y 19101.37557872 .00001618 00000-0 71259-4 0 9995 2 42787 97.3635 161.2364 0012177 99.8468 260.4149 15.23194961 99744 SUCHAI 1 1 42788U 17036Z 19101.16420655 .00002177 00000-0 96172-4 0 9993 2 42788 97.3591 160.7136 0013444 108.7608 251.5089 15.22708950 99923 SKCUBE 1 42789U 17036AA 19100.91289436 .00002037 00000-0 90399-4 0 9996 2 42789 097.3588 160.4234 0013296 109.5222 250.7452 15.22621050099809 VZLUSAT 1 1 42790U 17036AB 19100.83692766 .00002716 00000-0 11751-3 0 9991 2 42790 097.3600 160.7109 0012888 109.3313 250.9319 15.23209206099816 VENTA 1 1 42791U 17036AC 19100.16493108 .00001633 00000-0 73052-4 0 9997 2 42791 097.3592 159.7416 0012864 112.1376 248.1227 15.22641566099681 Robusta 1B 1 42792U 17036AD 19101.11397905 .00001792 00000-0 79546-4 0 9992 2 42792 97.3592 160.7503 0012825 109.4006 250.8618 15.22784608 99855 D-SAT 1 42794U 17036AF 19101.08978262 .00000349 00000-0 35740-4 0 9996 2 42794 97.5483 148.7771 0126886 11.0334 349.3620 14.91056105 98110 BIRD-J 1 42820U 98067MU 19101.71104011 .00327883 57088-4 59200-3 0 9995 2 42820 51.6246 258.8502 0007392 292.1665 67.8561 16.00987449100994 BIRD-G 1 42821U 98067MV 19101.75958199 .00193109 25425-4 52084-3 0 9999 2 42821 51.6220 262.9364 0005481 280.9022 79.1368 15.93918389100920 BIRD-M 1 42822U 98067MW 19101.70798492 .00247937 35880-4 55310-3 0 9993 2 42822 51.6269 261.1560 0006680 289.0979 70.9307 15.97328427100942 BIRD-B 1 42823U 98067MX 19101.69241218 .00291590 46412-4 58332-3 0 9995 2 42823 51.6241 260.2598 0007779 287.4221 72.5938 15.99218247100955 BIRD-N 1 42824U 98067MY 19101.76496534 .00232632 32698-4 53875-3 0 9997 2 42824 51.6273 261.6056 0007253 283.9658 76.0544 15.96659022100934 TechnoSat 1 42829U 17042E 19101.69390947 .00000117 00000-0 17287-4 0 9996 2 42829 97.5717 357.3731 0012750 288.8997 71.0839 14.90945946 94808 TOMSK-TPU 120 1 42910U 98067MZ 19101.76172081 .00056798 00000-0 33116-3 0 9992 2 42910 51.6371 281.8087 0005130 238.1834 214.6908 15.77840446 94282 TANYUSHA 1 1 42911U 98067NA 19101.84434601 .00097437 00000-0 42512-3 0 9996 2 42911 51.6240 274.6545 0005165 274.5274 224.9222 15.83931074 94364 TANYUSHA 2 1 42912U 98067NB 19101.75553957 .00076306 00000-0 38349-3 0 9998 2 42912 51.6371 278.8405 0005276 238.9309 213.1385 15.81001027 94327 TNS 0-2 1 42914U 98067ND 19101.35999726 .00061983 00000-0 35689-3 0 9993 2 42914 51.6352 284.6651 0004876 254.1257 105.9207 15.78087563 94206 QIKCOM-1 1 42983U 98067NF 19101.80385895 .00005239 00000-0 74158-4 0 9992 2 42983 51.6399 320.9403 0003754 223.3331 136.7366 15.58351045 82759 AO-91 1 43017U 17073E 19101.78617673 .00001457 00000-0 11854-3 0 9999 2 43017 97.7227 25.8007 0259149 19.8565 341.2511 14.78465232 75222 EcAMSat 1 43019U 98067NG 19101.80602176 .00009247 00000-0 11652-3 0 9999 2 43019 51.6408 317.2379 0004665 203.5397 156.5384 15.60402431165128 PICSAT 1 43132U 18004X 19101.13219422 .00002097 00000-0 91119-4 0 9995 2 43132 97.4938 169.0695 0011205 129.7493 230.4733 15.23379194 69062 AO-92 1 43137U 18004AC 19101.18544013 .00001607 00000-0 70675-4 0 9992 2 43137 97.4934 169.1242 0010655 130.6980 229.5184 15.23311693 69061 TianYi 2 1 43155U 18008A 19101.87230694 .00001482 00000-0 92227-4 0 9997 2 43155 97.4911 175.8257 0017574 192.4350 274.1896 15.11025742 67585 Zhou Enlai 1 43156U 18008B 19101.89385730 .00001065 00000-0 68350-4 0 9999 2 43156 97.4952 175.7539 0014596 188.7963 260.7509 15.10518317 67566 TianYi 6 1 43158U 18008D 19101.79366074 .00000873 00000-0 57291-4 0 9998 2 43158 97.4898 175.2159 0013256 188.7777 288.4522 15.10132568 67512 S-Net G 1 43186U 18014G 19101.69728183 .00000821 00000-0 77158-4 0 9995 2 43186 97.7136 11.1255 0009716 227.3551 132.6852 14.96610872 64966 S-Net H 1 43187U 18014H 19101.83083245 .00000818 00000-0 76886-4 0 9998 2 43187 97.7135 11.2473 0009722 226.7788 133.2622 14.96611029 64980 S-Net J 1 43188U 18014J 19101.69689178 .00000823 00000-0 77300-4 0 9998 2 43188 97.7137 11.1297 0009708 227.3256 132.7149 14.96610710 64969 S-Net K 1 43189U 18014K 19101.83093455 .00000817 00000-0 76791-4 0 9998 2 43189 97.7134 11.2452 0009708 226.7331 133.3081 14.96610683 63531 FMN 1 1 43192U 18015A 19101.25093275 .00003284 00000-0 13817-3 0 9999 2 43192 97.3879 229.9213 0015965 169.1355 191.0231 15.23981757 65891 Shaonian Xing 1 43199U 18015H 19101.81151086 .00002444 00000-0 10174-3 0 9993 2 43199 97.3672 229.7410 0017490 178.3605 181.7692 15.24570665 66027 1KUNS-PF 1 43466U 98067NP 19101.84456412 .00026105 00000-0 27925-3 0 9991 2 43466 51.6382 318.2044 0001245 177.4188 182.6814 15.63690442 52298 UBAKUSAT 1 43467U 98067NQ 19101.79085863 .00016888 00000-0 20105-3 0 9994 2 43467 51.6380 320.8400 0002997 164.7261 195.3824 15.61231788 52269 Irazu 1 43468U 98067NR 19100.85206869 .00038161 00000-0 37617-3 0 9996 2 43468 51.6375 321.3149 0001400 178.3468 181.7532 15.65558501152151 EnduroSat One 1 43551U 98067NZ 19101.80559317 .00020054 00000-0 24020-3 0 9990 2 43551 51.6388 323.1839 0005561 242.7764 117.2664 15.60928007 42460 EQUISat 1 43552U 98067PA 19101.67617879 .00016615 00000-0 20685-3 0 9995 2 43552 51.6395 324.5795 0005879 242.1048 117.9350 15.60058184 42397 UiTMSat 1 1 43589U 98067PD 19101.03936216 .00019740 00000-0 24550-3 0 9991 2 43589 51.6373 328.5465 0005093 246.5040 113.5419 15.59953173 38022 Maya 1 1 43590U 98067PE 19101.80408447 .00018313 00000-0 22779-3 0 9994 2 43590 51.6375 324.6564 0005137 251.8847 108.1587 15.60006043 38074 Bhutan 1 1 43591U 98067PF 19101.09248491 .00020005 00000-0 24795-3 0 9998 2 43591 51.6386 328.1647 0005309 249.1307 110.9118 15.60031704 37960 SiriusSat 1 1 43595U 98067PG 19101.11045911 .00018882 00000-0 24057-3 0 9998 2 43595 51.6374 329.0219 0003702 198.2949 161.7912 15.59352418 37138 SiriusSat 2 1 43596U 98067PH 19101.71053739 .00017296 00000-0 22209-3 0 9997 2 43596 51.6385 326.3048 0004291 203.3997 156.6801 15.59212366 37223 Tanusha-3 1 43597U 98067PJ 19101.18874206 .00023894 00000-0 29221-3 0 9991 2 43597 51.6369 328.0248 0003591 213.7539 146.3226 15.60269933 37159 SurfSat 1 43614U 18070B 19101.38182555 .00003791 00000-0 10400-3 0 9991 2 43614 93.0304 335.4873 0014996 200.1605 159.9057 15.37210763 31910 CP-7 DAVE 1 43615U 18070C 19101.64491742 .00003357 00000-0 92290-4 0 9998 2 43615 93.0310 335.5979 0015148 198.8758 161.1936 15.37156075 31958 ELFIN-B 1 43616U 18070D 19101.74201567 .00005140 00000-0 13898-3 0 9992 2 43616 93.0270 335.5623 0015831 202.5783 157.4776 15.37629280 31975 ELFIN-A 1 43617U 18070E 19101.60727588 .00005356 00000-0 14474-3 0 9994 2 43617 93.0327 335.6689 0015036 199.3564 160.7121 15.37660273 31955 STARS-Me Mother 1 43640U 98067PQ 19101.81888883 .00012006 00000-0 16725-3 0 9994 2 43640 51.6395 327.7688 0005636 195.7067 164.3751 15.57374561 29141 CubeBel 1 1 43666U 18083E 19101.77427257 .00001467 00000-0 76564-4 0 9998 2 43666 97.5260 126.6991 0016996 66.8088 53.7048 15.17424770 24985 Changshagaoxin 1 43669U 18083H 19101.76538870 .00001434 00000-0 76607-4 0 9996 2 43669 97.5124 126.2028 0012480 61.3332 298.9154 15.16677156 24933 Ten-Koh 1 43677U 18084G 19101.13121309 .00000246 00000-0 31143-4 0 9998 2 43677 97.8414 215.3433 0017234 144.7258 215.5117 14.90142712 24404 PO-101 1 43678U 18084H 19101.84914222 -.00000162 00000-0 -10452-4 0 9990 2 43678 97.8424 216.4240 0010277 159.2775 200.8850 14.91537275 24537 IRVINE 01 1 43693U 18088D 19101.40097636 .00004405 00000-0 19539-3 0 9990 2 43693 85.0386 3.2088 0021115 84.3558 276.0090 15.21079375 22986 QO-100 1 43700U 18090A 19101.27410524 .00000137 00000-0 00000 0 0 9999 2 43700 0.0159 193.0887 0002155 227.3247 263.2492 1.00272376 1600 Reaktor Hello World 1 43743U 18096AA 19101.79811493 .00001674 00000-0 66889-4 0 9998 2 43743 97.4653 171.8551 0017327 211.0048 273.6253 15.26431412 20370 MinXSS-2 1 43758U 18099A 19101.16654461 .00000384 00000-0 40043-4 0 9999 2 43758 97.7499 174.0140 0015407 190.5333 169.5568 14.95351300 19193 AO-95 1 43770U 18099N 19101.15340957 .00000727 00000-0 72196-4 0 9999 2 43770 97.7501 173.8824 0014278 196.5324 163.5433 14.94715509 19186 RANGE-B 1 43772U 18099Q 19101.14696912 .00000975 00000-0 94739-4 0 9997 2 43772 97.7551 173.9714 0014306 183.5554 176.5567 14.94806422 19171 RANGE-A 1 43773U 18099R 19101.14813779 .00000693 00000-0 68943-4 0 9995 2 43773 97.7448 173.8089 0013594 183.4064 176.7066 14.94765314 19174 MOVE-II 1 43780U 18099Y 19101.20005441 .00000818 00000-0 80062-4 0 9994 2 43780 97.7485 173.9469 0013457 194.2147 165.8697 14.94975130 19174 SNUSat 2 1 43782U 18099AA 19101.73067115 .00000426 00000-0 44151-4 0 9994 2 43782 97.7493 174.5042 0012900 181.5486 178.5697 14.95003872 19263 SnugLite 1 43784U 18099AC 19101.18883494 .00000155 00000-0 19365-4 0 9999 2 43784 97.7460 173.9243 0014953 192.5561 167.5289 14.95079227 19195 ITASat 1 1 43786U 18099AE 19101.18734364 .00000068 00000-0 11518-4 0 9997 2 43786 97.7513 174.0170 0015037 191.4921 168.5958 14.95092459 19195 EAGLET 1 1 43790U 18099AJ 19100.88688058 .00000701 00000-0 68540-4 0 9997 2 43790 97.7507 173.7795 0013107 196.3009 163.7792 14.95469846 18841 ESEO 1 43792U 18099AL 19101.35297946 .00000541 00000-0 54085-4 0 9995 2 43792 97.7487 174.2183 0012994 191.6738 168.4183 14.95484269 18973 CSIM 1 43793U 18099AM 19101.21290484 .00001212 00000-0 11419-3 0 9990 2 43793 97.7444 174.0038 0013167 189.5921 170.5050 14.95607991 18928 Astrocast 0.1 1 43798U 18099AS 19101.20104240 .00000399 00000-0 40995-4 0 9995 2 43798 97.7488 174.1141 0012723 175.7267 184.4065 14.95702741 19182 JO-97 1 43803U 18099AX 19101.17784712 -.00000010 00000-0 43699-5 0 9992 2 43803 97.7473 173.9549 0014938 192.2587 167.8272 14.95214040 19186 Suomi 100 1 43804U 18099AY 19101.77971388 -.00000007 00000-0 46461-5 0 9992 2 43804 97.7471 174.5490 0015064 190.4311 169.6600 14.95216642 19289 Al Farabi 2 1 43805U 18099AZ 19101.77733692 .00000143 00000-0 18206-4 0 9992 2 43805 97.7473 174.5531 0015114 190.5078 169.5829 14.95258912 19283 PWSat 2 1 43814U 18099BJ 19101.18553440 .00018559 00000-0 15909-2 0 9993 2 43814 97.7737 174.2885 0013547 166.9426 193.2160 14.97504589 18598 CHOMPTT 1 43855U 18104G 19101.40028762 .00001173 00000-0 49089-4 0 9996 2 43855 85.0339 101.5844 0016687 198.8454 161.2172 15.22242739 17639 ISAT 1 43879U 18111D 19101.76737801 .00000854 00000-0 81355-4 0 9997 2 43879 97.7223 10.7436 0011586 249.3053 110.6926 14.95935739 13780 UWE-4 1 43880U 18111E 19101.81699609 .00000795 00000-0 75672-4 0 9997 2 43880 97.7227 10.8451 0010912 249.8148 110.1900 14.96176186 13800 Sparrow 1 43881U 18111F 19101.74700108 .00000651 00000-0 62812-4 0 9990 2 43881 97.7230 10.7883 0011087 248.9417 111.0619 14.96221337 13789 Lume 1 1 43908U 18111AJ 19101.85462147 .00001497 00000-0 64060-4 0 9996 2 43908 97.2946 8.9423 0020352 228.0772 131.8731 15.24182868 16117 FO-98 1 43933U 19003B 19101.75502816 .00001027 00000-0 48485-4 0 9994 2 43933 97.2890 161.4837 0016840 329.4370 147.0759 15.21522973 12728 FO-99 1 43937U 19003F 19101.72109256 .00001580 00000-0 68905-4 0 9999 2 43937 97.2844 161.6178 0023100 314.9473 164.0375 15.23388572 12732 Delphini 1 1 44030U 98067PW 19100.94493109 .00015044 00000-0 22539-3 0 9999 2 44030 51.6394 334.6799 0004184 240.3411 119.7164 15.55164970 10849 MYSat 1 1 44045U 18092F 19100.89479227 .00002848 00000-0 94813-4 0 9997 2 44045 51.6453 343.9722 0012530 191.3512 168.7188 15.34577494 8675 AstroCast 0.2 1 44083U 19018F 19101.73084752 .00001069 00000-0 50871-4 0 9997 2 44083 97.4760 162.2263 0012498 243.1009 116.8950 15.21295146 1589 AISTechSat 3 1 44103U 19018AB 19101.65691802 .00001325 00000-0 60191-4 0 9992 2 44103 97.4639 162.1385 0012015 264.8693 95.1172 15.22490031 1569 AISat 1 1 44104U 19018AC 19101.73483526 .00001111 00000-0 38810-4 0 9990 2 44104 97.5171 162.3594 0057956 308.5428 51.0625 15.30335331 1611 /EX